Location: Newark
(48.6461°N, 4.3644°W)
Time: 01:56:05
(UTC+00:00)

deb Explorer IX - Pass Details

Date: 29 January 2020
Orbit: 549 x 1099 km, 38.8° (Epoch: 20 February)

Event Time Altitude Azimuth Distance (km) Brightness Sun altitude
Rises 21:23:43 0° 239° (WSW) 3,619 ? -41.4°
Reaches altitude 10° 21:26:28 10° 231° (SW) 2,748 ? -41.8°
Enters shadow 21:26:35 11° 230° (SW) 2,712 ? -41.9°
